Location: Newark
(34.9500°N, 139.9667°E)
Time: 09:25:40
(UTC+00:00)

Vanguard 2 Rocket - Pass Details

Date: 16 December 2019
Orbit: 554 x 3326 km, 32.9° (Epoch: 21 January)

Event Time Altitude Azimuth Distance (km) Brightness Sun altitude
Rises 12:39:25 0° 281° (WNW) 5,240 11.2 -62.2°
Reaches altitude 10° 12:44:00 10° 273° (W) 3,732 10.3 -63.1°
Enters shadow 12:44:06 10° 272° (W) 3,700 10.2 -63.1°
Maximum altitude 12:51:20 29° 217° (SW) 1,840 - -64.5°
Drops below altitude 10° 12:56:08 10° 158° (SSE) 2,379 - -65.4°
Sets 12:58:25 0° 145° (SE) 3,093 - -65.9°
